Waco, TX

7:45 AM CDT on April 24, 2018 (GMT -0500)
Waco Regional

Weather History for KACT - May, 2013

Change the Weather History Date:

Thursday, May 16, 2013

  Actual Average Record
Temperature  
Mean Temperature 74 °F 74 °F  
Max Temperature 85 °F 85 °F 97 °F (2003)
Min Temperature 63 °F 64 °F 48 °F (2014)
Degree Days  
Heating Degree Days 0 0  
Month to date heating degree days 41 4  
Since 1 July heating degree days 2023 2140  
Cooling Degree Days 9 10  
Month to date cooling degree days 62 124  
Year to date cooling degree days 200 278  
Growing Degree Days 24 (Base 50)    
Moisture  
Dew Point 65 °F    
Average Humidity 77    
Maximum Humidity 93    
Minimum Humidity 61    
Precipitation  
Precipitation 0.09 in 0.13 in 3.42 in (1920)
Month to date precipitation 1.48 2.20  
Year to date precipitation 12.21 12.79  
Sea Level Pressure  
Sea Level Pressure 29.81 in    
Wind  
Wind Speed 12 mph (SSE)    
Max Wind Speed 25 mph    
Max Gust Speed 32 mph    
Visibility 8 miles    
Events Rain , Thunderstorm    
T = Trace of Precipitation, MM = Missing Value Source: NWS Daily Summary

Daily Weather History Graph

Daily Weather History Graph

Search for Another Location

Airport or City:

Astronomy

May. 16, 2013 Rise Set
Actual Time 6:31 AM CDT 8:19 PM CDT
Civil Twilight 6:04 AM CDT 8:46 PM CDT
Nautical Twilight 5:32 AM CDT 9:18 PM CDT
Astronomical Twilight 4:58 AM CDT 9:52 PM CDT
Moon 11:59 AM CDT (5/16) 12:46 AM CDT (5/16)
Length of Visible Light 14h 41m
Length of Day
13h 47m
Waxing Crescent, 36% of the Moon is Illuminated
May 16
Waxing Crescent
May 17
First Quarter
May 24
Full
May 31
Last Quarter
Jun 8
New

Hourly Weather History & Observations

Time (CDT) Temp. Heat Index Dew Point Humidity Pressure Visibility Wind Dir Wind Speed Gust Speed Precip Events Conditions
12:04 AM 66.2 °F - 62.6 °F 88% 29.91 in 2.5 mi West 27.6 mph 54.1 mph 0.00 in Rain , Thunderstorm Light Thunderstorms and Rain
12:10 AM 64.4 °F - 60.8 °F 88% 29.91 in 0.8 mi WSW 19.6 mph 42.6 mph 0.09 in Rain , Thunderstorm Heavy Thunderstorms and Rain
12:16 AM 62.6 °F - 60.8 °F 94% 29.90 in 1.0 mi WSW 20.7 mph 34.5 mph 0.24 in Rain , Thunderstorm Heavy Thunderstorms and Rain
12:24 AM 64.4 °F - 62.6 °F 94% 29.90 in 2.0 mi SW 16.1 mph - 0.35 in Rain , Thunderstorm Heavy Thunderstorms and Rain
12:32 AM 64.4 °F - 62.6 °F 94% 29.89 in 6.0 mi SW 15.0 mph 20.7 mph 0.36 in Rain , Thunderstorm Thunderstorms and Rain
12:51 AM 64.0 °F - 61.0 °F 90% 29.89 in 7.0 mi SSW 11.5 mph 19.6 mph 0.38 in Rain , Thunderstorm Light Thunderstorms and Rain
1:51 AM 64.0 °F - 62.1 °F 93% 29.80 in 10.0 mi SE 15.0 mph - 0.08 in Rain , Thunderstorm Light Thunderstorms and Rain
2:05 AM 64.4 °F - 62.6 °F 94% 29.83 in 10.0 mi SSE 16.1 mph - 0.00 in Rain , Thunderstorm Light Thunderstorms and Rain
2:51 AM 64.0 °F - 61.0 °F 90% 29.75 in 10.0 mi SSE 12.7 mph 21.9 mph 0.02 in   Partly Cloudy
3:51 AM 64.0 °F - 61.0 °F 90% 29.79 in 10.0 mi ENE 6.9 mph - N/A   Clear
4:51 AM 62.6 °F - 60.8 °F 94% 29.82 in 10.0 mi East 4.6 mph - N/A   Clear
5:51 AM 63.0 °F - 61.0 °F 93% 29.81 in 10.0 mi SSE 10.4 mph - N/A   Clear
6:22 AM 62.6 °F - 60.8 °F 94% 29.82 in 10.0 mi SE 6.9 mph - N/A   Mostly Cloudy
6:34 AM 62.6 °F - 60.8 °F 94% 29.82 in 10.0 mi South 8.1 mph - N/A   Scattered Clouds
6:51 AM 64.0 °F - 61.0 °F 90% 29.81 in 10.0 mi SSE 8.1 mph - N/A   Clear
7:34 AM 66.2 °F - 64.4 °F 94% 29.83 in 10.0 mi SSE 12.7 mph - N/A   Overcast
7:51 AM 66.9 °F - 64.0 °F 90% 29.81 in 10.0 mi South 13.8 mph - N/A   Overcast
8:51 AM 69.1 °F - 64.9 °F 87% 29.80 in 10.0 mi South 20.7 mph 26.5 mph N/A   Overcast
9:51 AM 69.1 °F - 66.0 °F 90% 29.80 in 9.0 mi South 17.3 mph - N/A   Overcast
10:51 AM 71.1 °F - 66.9 °F 87% 29.81 in 5.0 mi South 17.3 mph - N/A   Overcast
11:51 AM 73.0 °F - 68.0 °F 84% 29.81 in 7.0 mi South 12.7 mph 19.6 mph N/A   Overcast
12:51 PM 75.0 °F - 68.0 °F 79% 29.80 in 9.0 mi South 12.7 mph - N/A   Overcast
1:51 PM 78.1 °F - 69.1 °F 74% 29.80 in 8.0 mi South 10.4 mph - N/A   Overcast
2:51 PM 79.0 °F - 69.1 °F 72% 29.79 in 9.0 mi South 10.4 mph - N/A   Overcast
3:51 PM 82.9 °F 87.0 °F 70.0 °F 65% 29.76 in 10.0 mi South 12.7 mph - N/A   Scattered Clouds
4:51 PM 84.0 °F 87.8 °F 69.1 °F 61% 29.74 in 10.0 mi South 10.4 mph - N/A   Clear
5:51 PM 84.9 °F 88.8 °F 69.1 °F 59% 29.73 in 10.0 mi South 8.1 mph - N/A   Clear
6:51 PM 82.9 °F 87.5 °F 71.1 °F 67% 29.72 in 10.0 mi ESE 8.1 mph - N/A   Clear
7:51 PM 80.1 °F 83.6 °F 71.1 °F 74% 29.73 in 9.0 mi East 5.8 mph - N/A   Clear
8:51 PM 77.0 °F - 71.1 °F 82% 29.73 in 9.0 mi ESE 8.1 mph - N/A   Clear
9:51 PM 78.1 °F - 71.1 °F 79% 29.75 in 10.0 mi SSE 15.0 mph - N/A   Clear
10:51 PM 75.9 °F - 70.0 °F 82% 29.77 in 8.0 mi SSE 13.8 mph - N/A   Clear
11:51 PM 73.9 °F - 70.0 °F 87% 29.78 in 6.0 mi SSE 12.7 mph - N/A   Partly Cloudy